Skip Page Navigation
NASA JPL Caltech
NASA Logo - Jet Propulsion Laboratory + View the NASA Portal
+ Center for Near-Earth Object Studies
JPL Home Earth Solar System Stars & Galaxies Technology
JPL Solar System Dynamics
BODIES ORBITS EPHEMERIDES TOOLS PHYSICAL DATA DISCOVERY FAQ SITE MAP
IMPORTANT: The SSD Announcement email list is now available. Major changes are coming in the near future, including possible hostname and/or URL changes. To be notified of such changes, subscribe to this email list.

Please visit this page for more details.


JPL Small-Body Database Browser
Search: [ help ]  
215601 (2003 RE14)
Classification: Main-belt Asteroid          SPK-ID: 2215601
Ephemeris | Orbit Diagram | Orbital Elements | Mission Design | Physical Parameters | Discovery Circumstances ]

[ show orbit diagram ]
Orbital Elements at Epoch 2458600.5 (2019-Apr-27.0) TDB
Reference: JPL 15 (heliocentric ecliptic J2000)
 Element Value Uncertainty (1-sigma)   Units 
e .1656502921902353 5.9471e-08  
a 2.217165188687324 1.3088e-08 au
q 1.849891127347251 1.381e-07 au
i 2.488607822470888 4.518e-06 deg
node 212.4007786661783 0.00011511 deg
peri 148.188627475693 0.0001162 deg
M 257.7723002003853 1.7718e-05 deg
tp 2458942.921946622367
(2020-Apr-03.42194662)
6.0959e-05 TDB
period 1205.856152742242
3.30
1.0677e-05
2.923e-08
d
yr
n .2985430718094547 2.6435e-09 deg/d
Q 2.584439250027398 1.5256e-08 au
  Orbit Determination Parameters
   # obs. used (total)      327  
   data-arc span      7399 days (20.26 yr)  
   first obs. used      1999-05-18  
   last obs. used      2019-08-20  
   planetary ephem.      DE431  
   SB-pert. ephem.      SB431-N16  
   condition code      0  
   norm. resid. RMS      .61399  
   source      ORB  
   producer      Otto Matic  
   solution date      2019-Sep-24 04:04:12  

Additional Information
 Earth MOID = .846467 au 
 Jupiter MOID = 2.86642 au 
 T_jup = 3.633 
[ show covariance matrix ]

Ephemeris | Orbit Diagram | Orbital Elements | Mission Design | Physical Parameters | Discovery Circumstances ]

Physical Parameter Table
Parameter Symbol Value Units Sigma Reference Notes
absolute magnitude H 16.8   n/a MPO437031  

215601 (2003 RE14)          Discovered 2003-Sep-15 by NEAT at Haleakala
Reference: 20090607/Numbers.arcLast Updated: 2009-06-08

Alternate Designations
 2003 RE14 = 2001 BP11 
Ephemeris | Orbit Diagram | Orbital Elements | Mission Design | Physical Parameters | Discovery Circumstances ]
ABOUT SSD CREDITS/AWARDS PRIVACY/COPYRIGHT GLOSSARY LINKS
FirstGov
(server date/time)  
NASA Home Page
Site Manager:   Ryan S. Park
Webmaster  Alan B. Chamberlin